FW8795 Weather Reports


Display with metric or nautical units.
time (UTC)temp
F
wind
direction
speed
MPH
gust
MPH
rain 1hr
in
rain 24hr
in
rain mn
in
humidity
%
barometer
mb
20260503024604 82 220 0.0 2.0 0.00 0.00 0.00 71 1014.5
20260503024056 82 222 0.0 2.0 0.00 0.00 0.00 71 1014.5
20260503023557 82 227 0.0 4.0 0.00 0.00 0.00 71 1014.6
20260503023059 82 257 0.0 4.0 0.00 0.00 0.00 70 1014.6
20260503022556 82 192 0.0 4.0 0.00 0.00 0.00 70 1014.5
20260503022056 82 230 1.0 4.0 0.00 0.00 0.00 69 1014.5
20260503021606 82 209 1.0 4.0 0.00 0.00 0.00 69 1014.5
20260503021055 82 0 1.0 4.0 0.00 0.00 0.00 68 1014.4
20260503020556 83 226 1.0 4.0 0.00 0.00 0.00 67 1014.4
20260503020054 83 168 1.0 4.0 0.00 0.00 0.00 66 1014.5
20260503015554 83 230 0.0 3.0 0.00 0.00 0.00 66 1014.5
20260503015054 83 222 1.0 3.0 0.00 0.00 0.00 65 1014.4
20260503014605 83 36 0.0 2.0 0.00 0.00 0.00 64 1014.4
20260503014054 83 155 0.0 3.0 0.00 0.00 0.00 64 1014.3
20260503013556 83 0 0.0 3.0 0.00 0.00 0.00 63 1014.2
20260503013055 84 0 0.0 4.0 0.00 0.00 0.00 62 1014.2
20260503012555 84 253 0.0 4.0 0.00 0.00 0.00 61 1014.2
20260503012056 84 101 0.0 3.0 0.00 0.00 0.00 60 1014.1
20260503011559 84 0 0.0 2.0 0.00 0.00 0.00 60 1014.0
20260503011057 84 0 0.0 3.0 0.00 0.00 0.00 59 1013.9
20260503010556 84 215 0.0 5.0 0.00 0.00 0.00 59 1013.8
20260503010107 85 0 1.0 5.0 0.00 0.00 0.00 58 1013.8
20260503005559 85 0 0.0 7.0 0.00 0.00 0.00 57 1013.7
20260503005056 85 317 1.0 7.0 0.00 0.00 0.00 57 1013.7
20260503004555 85 207 1.0 6.0 0.00 0.00 0.00 56 1013.6
20260503004052 85 0 0.0 6.0 0.00 0.00 0.00 56 1013.6
20260503003553 86 263 1.0 3.0 0.00 0.00 0.00 56 1013.4
20260503003104 86 240 0.0 4.0 0.00 0.00 0.00 55 1013.4
20260503002554 86 0 0.0 4.0 0.00 0.00 0.00 55 1013.3
20260503002054 86 204 1.0 5.0 0.00 0.00 0.00 54 1013.2
20260503001608 87 202 1.0 5.0 0.00 0.00 0.00 53 1013.1
20260503001056 87 0 1.0 5.0 0.00 0.00 0.00 52 1013.0
20260503000556 87 236 1.0 5.0 0.00 0.00 0.00 51 1012.8
20260503000122 88 214 0.0 10.0 0.00 0.00 0.00 48 1012.8
20260502235556 88 0 1.0 10.0 0.00 0.00 0.00 47 1012.8
20260502235056 88 216 2.0 10.0 0.00 0.00 0.00 46 1012.7
20260502234605 88 0 1.0 3.0 0.00 0.00 0.00 45 1012.5
20260502234055 89 245 1.0 3.0 0.00 0.00 0.00 44 1012.4
20260502233554 89 0 0.0 2.0 0.00 0.00 0.00 44 1012.3
20260502233053 89 206 0.0 4.0 0.00 0.00 0.00 43 1012.2
20260502232555 89 0 0.0 4.0 0.00 0.00 0.00 43 1012.2
20260502232052 89 202 0.0 4.0 0.00 0.00 0.00 42 1012.0
20260502231605 90 218 0.0 4.0 0.00 0.00 0.00 41 1011.9
20260502231056 90 155 0.0 4.0 0.00 0.00 0.00 41 1011.9
20260502230559 90 229 2.0 4.0 0.00 0.00 0.00 41 1011.7
20260502230058 90 178 2.0 4.0 0.00 0.00 0.00 41 1011.6
20260502225554 91 263 1.0 4.0 0.00 0.00 0.00 41 1011.6
20260502225056 91 0 1.0 4.0 0.00 0.00 0.00 40 1011.6
20260502224555 91 194 1.0 7.0 0.00 0.00 0.00 40 1011.6
20260502224056 91 274 0.0 7.0 0.00 0.00 0.00 40 1011.5
20260502223557 91 225 2.0 9.0 0.00 0.00 0.00 40 1011.5
20260502223059 91 215 1.0 9.0 0.00 0.00 0.00 42 1011.5
20260502222559 92 216 2.0 8.0 0.00 0.00 0.00 41 1011.4
20260502222056 92 233 1.0 7.0 0.00 0.00 0.00 41 1011.5
20260502221556 92 246 1.0 7.0 0.00 0.00 0.00 40 1011.5
20260502221053 92 207 2.0 6.0 0.00 0.00 0.00 40 1011.4
20260502220553 92 208 1.0 7.0 0.00 0.00 0.00 40 1011.5
20260502220056 92 207 1.0 7.0 0.00 0.00 0.00 39 1011.4
20260502215553 93 223 3.0 6.0 0.00 0.00 0.00 38 1011.4
20260502215056 93 243 1.0 6.0 0.00 0.00 0.00 37 1011.3
20260502214601 94 263 1.0 6.0 0.00 0.00 0.00 36 1011.3
20260502214056 94 254 1.0 5.0 0.00 0.00 0.00 37 1011.3
20260502213556 94 232 1.0 4.0 0.00 0.00 0.00 36 1011.3
20260502213055 94 210 1.0 4.0 0.00 0.00 0.00 36 1011.2
20260502212556 94 0 1.0 4.0 0.00 0.00 0.00 35 1011.2
20260502212056 95 17 1.0 7.0 0.00 0.00 0.00 35 1011.1
20260502211558 95 137 2.0 7.0 0.00 0.00 0.00 34 1011.0
20260502211056 95 103 2.0 5.0 0.00 0.00 0.00 34 1011.0
20260502210555 95 198 1.0 7.0 0.00 0.00 0.00 34 1010.9
20260502210059 95 248 1.0 9.0 0.00 0.00 0.00 34 1011.0
20260502205555 95 267 2.0 9.0 0.00 0.00 0.00 35 1011.1
20260502205056 95 215 3.0 9.0 0.00 0.00 0.00 35 1010.9
20260502204612 95 224 2.0 8.0 0.00 0.00 0.00 34 1011.0
20260502204053 96 263 3.0 8.0 0.00 0.00 0.00 33 1010.9
20260502203553 96 194 2.0 7.0 0.00 0.00 0.00 34 1011.0
20260502203115 96 276 1.0 9.0 0.00 0.00 0.00 36 1010.9
20260502202554 95 258 2.0 9.0 0.00 0.00 0.00 35 1011.0
20260502202056 95 271 3.0 9.0 0.00 0.00 0.00 39 1011.0
20260502201559 96 314 2.0 6.0 0.00 0.00 0.00 38 1011.0
20260502201056 96 223 1.0 8.0 0.00 0.00 0.00 37 1011.1
20260502200557 95 180 3.0 8.0 0.00 0.00 0.00 38 1011.3
20260502200058 95 221 2.0 8.0 0.00 0.00 0.00 40 1011.2
20260502195555 96 208 3.0 9.0 0.00 0.00 0.00 38 1011.3
20260502195054 96 184 2.0 9.0 0.00 0.00 0.00 39 1011.4
20260502194604 96 164 2.0 7.0 0.00 0.00 0.00 38 1011.5
20260502194056 96 281 2.0 7.0 0.00 0.00 0.00 39 1011.5
20260502193556 95 189 2.0 7.0 0.00 0.00 0.00 40 1011.6
20260502193057 95 129 3.0 7.0 0.00 0.00 0.00 40 1011.7
20260502192557 95 234 2.0 7.0 0.00 0.00 0.00 40 1011.7
20260502192055 96 247 2.0 7.0 0.00 0.00 0.00 41 1011.8
20260502191600 96 254 3.0 7.0 0.00 0.00 0.00 38 1011.8
20260502191052 96 291 2.0 7.0 0.00 0.00 0.00 42 1011.7
20260502190555 96 209 1.0 9.0 0.00 0.00 0.00 42 1011.8
20260502190057 95 222 2.0 9.0 0.00 0.00 0.00 41 1011.8
20260502185556 94 126 1.0 8.0 0.00 0.00 0.00 53 1012.0
20260502185052 95 242 2.0 9.0 0.00 0.00 0.00 43 1012.0
20260502184601 94 192 2.0 9.0 0.00 0.00 0.00 46 1011.9
20260502184056 93 210 1.0 7.0 0.00 0.00 0.00 49 1011.9
20260502183557 91 0 0.0 6.0 0.00 0.00 0.00 59 1011.9
20260502183057 92 225 2.0 6.0 0.00 0.00 0.00 57 1012.0
20260502182555 92 209 1.0 4.0 0.00 0.00 0.00 57 1012.1
20260502182052 91 84 1.0 7.0 0.00 0.00 0.00 57 1012.2
20260502181608 92 234 2.0 7.0 0.00 0.00 0.00 59 1012.2
20260502181052 92 142 1.0 10.0 0.00 0.00 0.00 58 1012.3
20260502180555 92 187 3.0 10.0 0.00 0.00 0.00 60 1012.1
20260502164056 91 221 2.0 8.0 0.00 0.00 0.00 62 1012.6
20260502163556 90 127 2.0 9.0 0.00 0.00 0.00 63 1012.6
20260502163104 91 183 3.0 9.0 0.00 0.00 0.00 60 1012.6
20260502162556 91 159 2.0 9.0 0.00 0.00 0.00 60 1012.6
20260502162056 89 201 2.0 9.0 0.00 0.00 0.00 66 1012.7
20260502161559 90 130 2.0 9.0 0.00 0.00 0.00 65 1012.8
20260502161056 90 199 2.0 7.0 0.00 0.00 0.00 66 1012.8
20260502160556 90 151 1.0 5.0 0.00 0.00 0.00 66 1012.8
20260502152056 88 182 2.0 9.0 0.00 0.00 0.00 67 1013.1
20260502151604 88 171 3.0 9.0 0.00 0.00 0.00 67 1013.2
20260502151058 88 192 3.0 9.0 0.00 0.00 0.00 67 1013.1
20260502150555 88 104 1.0 10.0 0.00 0.00 0.00 69 1013.2
20260502130555 83 160 2.0 7.0 0.00 0.00 0.00 77 1012.8
20260502130105 82 135 2.0 7.0 0.00 0.00 0.00 78 1012.8
20260502123555 81 192 1.0 5.0 0.00 0.00 0.00 80 1013.0
20260502123108 81 151 1.0 5.0 0.00 0.00 0.00 80 1013.0
20260502122556 80 153 0.0 5.0 0.00 0.00 0.00 81 1013.0
20260502122056 80 171 1.0 5.0 0.00 0.00 0.00 82 1012.9
20260502121602 80 129 0.0 4.0 0.00 0.00 0.00 83 1012.9
20260502121056 79 218 0.0 4.0 0.00 0.00 0.00 83 1013.0
20260502120559 79 0 0.0 4.0 0.00 0.00 0.00 84 1012.9
20260502120111 78 0 1.0 4.0 0.00 0.00 0.00 84 1012.9
20260502115556 78 0 0.0 1.0 0.00 0.00 0.00 85 1012.9
20260502115056 78 0 0.0 1.0 0.00 0.00 0.00 85 1012.9
20260502114607 78 0 0.0 1.0 0.00 0.00 0.00 85 1012.9
20260502114056 77 0 0.0 1.0 0.00 0.00 0.00 85 1012.9
20260502113556 77 0 0.0 2.0 0.00 0.00 0.00 85 1013.0
20260502113101 77 0 0.0 3.0 0.00 0.00 0.00 86 1012.9
20260502112557 77 0 0.0 3.0 0.00 0.00 0.00 86 1013.0
20260502112054 77 0 0.0 1.0 0.00 0.00 0.00 86 1013.0
20260502111605 76 0 0.0 1.0 0.00 0.00 0.00 86 1013.0
20260502111055 76 0 0.0 1.0 0.00 0.00 0.00 86 1012.9
20260502110558 76 0 0.0 0.0 0.00 0.00 0.00 85 1013.0
20260502110108 76 0 0.0 0.0 0.00 0.00 0.00 85 1013.0
20260502105557 76 0 0.0 0.0 0.00 0.00 0.00 85 1013.0
20260502105057 76 0 0.0 0.0 0.00 0.00 0.00 85 1012.9
20260502104555 76 0 0.0 0.0 0.00 0.00 0.00 85 1012.9
20260502104056 77 0 0.0 0.0 0.00 0.00 0.00 85 1012.9
20260502103556 77 0 0.0 0.0 0.00 0.00 0.00 84 1012.8
20260502103100 77 0 0.0 1.0 0.00 0.00 0.00 84 1012.8
20260502102556 77 0 0.0 1.0 0.00 0.00 0.00 84 1012.8
20260502102055 77 0 0.0 0.0 0.00 0.00 0.00 84 1012.9
20260502101554 77 0 0.0 1.0 0.00 0.00 0.00 84 1012.9
20260502101057 77 0 0.0 1.0 0.00 0.00 0.00 84 1012.9
20260502100552 77 0 0.0 1.0 0.00 0.00 0.00 85 1012.9
20260502091052 77 0 0.0 2.0 0.00 0.00 0.00 86 1012.7
20260502090559 77 0 0.0 2.0 0.00 0.00 0.00 86 1012.7
20260502080106 76 0 0.0 0.0 0.00 0.00 0.00 86 1012.7
20260502071056 76 0 0.0 0.0 0.00 0.00 0.00 86 1012.7
20260502070556 76 0 0.0 0.0 0.00 0.00 0.00 86 1012.7
20260502070056 76 0 0.0 0.0 0.00 0.00 0.00 86 1012.6
20260502065556 76 0 0.0 0.0 0.00 0.00 0.00 86 1012.7
20260502065057 76 0 0.0 0.0 0.00 0.00 0.00 86 1012.8
20260502064600 76 0 0.0 0.0 0.00 0.00 0.00 85 1012.8
20260502064055 76 0 0.0 0.0 0.00 0.00 0.00 85 1012.8
20260502063556 76 0 0.0 1.0 0.00 0.00 0.00 85 1012.8
20260502063055 76 0 0.0 1.0 0.00 0.00 0.00 85 1012.8
20260502062556 76 0 0.0 1.0 0.00 0.00 0.00 85 1012.8
20260502062056 76 0 0.0 1.0 0.00 0.00 0.00 85 1012.9
20260502061554 76 0 0.0 1.0 0.00 0.00 0.00 85 1012.9
20260502061056 76 0 0.0 1.0 0.00 0.00 0.00 85 1012.9
20260502060556 76 0 0.0 1.0 0.00 0.00 0.00 85 1012.9
20260502060058 76 0 0.0 1.0 0.00 0.00 0.00 85 1012.9
20260502055553 76 0 0.0 1.0 0.00 0.00 0.00 85 1012.8
20260502055053 76 0 0.0 1.0 0.00 0.00 0.00 85 1012.8
20260502054559 76 0 0.0 1.0 0.00 0.00 0.00 84 1012.9
20260502054055 76 0 0.0 1.0 0.00 0.00 0.00 84 1012.9
20260502053556 76 0 0.0 1.0 0.00 0.00 0.00 84 1012.9
20260502053055 76 0 0.0 1.0 0.00 0.00 0.00 84 1012.9
20260502052552 76 0 0.0 1.0 0.00 0.00 0.00 84 1013.0
20260502052057 76 0 0.0 1.0 0.00 0.00 0.00 84 1013.0
20260502051554 76 0 0.0 1.0 0.00 0.00 0.00 84 1013.1
20260502051057 76 0 0.0 1.0 0.00 0.00 0.00 84 1013.1
20260502050556 76 0 0.0 1.0 0.00 0.00 0.00 84 1013.2
20260502050054 76 0 0.0 1.0 0.00 0.00 0.00 84 1013.1
20260502045555 77 0 0.0 1.0 0.00 0.00 0.00 84 1013.2
20260502045052 77 0 0.0 1.0 0.00 0.00 0.00 84 1013.2
20260502044556 77 0 0.0 1.0 0.00 0.00 0.00 84 1013.3
20260502044052 77 0 0.0 1.0 0.00 0.00 0.00 84 1013.3
20260502043552 77 0 0.0 1.0 0.00 0.00 0.00 83 1013.4
20260502043055 77 0 0.0 0.0 0.00 0.00 0.00 83 1013.4
20260502042552 77 0 0.0 0.0 0.00 0.00 0.00 83 1013.4
20260502042052 77 0 0.0 0.0 0.00 0.00 0.00 83 1013.4
20260502041555 77 0 0.0 1.0 0.00 0.00 0.00 83 1013.6
20260502041057 77 0 0.0 1.0 0.00 0.00 0.00 83 1013.6
20260502040626 77 0 0.0 1.0 0.00 0.00 0.00 83 1013.8
20260502040106 78 0 0.0 2.0 0.00 0.00 0.00 82 1013.8
20260502035556 78 0 0.0 2.0 0.00 0.00 0.00 82 1013.8
20260502035056 78 0 0.0 2.0 0.00 0.00 0.00 82 1013.8
20260502034557 78 0 0.0 1.0 0.00 0.00 0.00 82 1013.8
20260502034056 78 0 0.0 3.0 0.00 0.00 0.00 82 1013.8
20260502033555 78 0 0.0 3.0 0.00 0.00 0.00 82 1013.8
20260502033100 78 130 0.0 1.0 0.00 0.00 0.00 82 1013.7
20260502032556 78 0 0.0 1.0 0.00 0.00 0.00 82 1013.7
20260502032056 78 0 0.0 1.0 0.00 0.00 0.00 82 1013.7
20260502031634 78 0 0.0 1.0 0.00 0.00 0.00 82 1013.7
20260502031056 78 0 0.0 0.0 0.00 0.00 0.00 82 1013.6
20260502030556 78 0 0.0 0.0 0.00 0.00 0.00 82 1013.7
20260502030100 78 0 0.0 0.0 0.00 0.00 0.00 82 1013.7
20260502025555 78 0 0.0 1.0 0.00 0.00 0.00 81 1013.7
20260502025055 78 0 0.0 4.0 0.00 0.00 0.00 81 1013.7